[[{"header":{"parameterUnit":"m.s-1","parameterCategory":1,"la1":30.2991,"la2":30.254,"lo1":-89.0895,"lo2":-89.0444,"dy":0.0017,"dx":0.0017,"nx":28,"ny":28,"refTime":"2024-05-03T21:00:00:Z","depth":0,"parameterNumber":2,"parameterNumberName":"U-component_of_WINDS"},"data":[0,0,0,0,0,0,0,0,0,0,0,0,0,0,0,0,0,0,0,0,0,0,0,0,0,0,0,0,0,0,0,0,0,0,0,0,0,0,0,0,0,0,0,0,0,0,0,0,0,0,0,0,0,0,0,0,0,0,-1.3488,-1.3489,0,-1.3578,-1.3579,-1.358,-1.359,-1.3589,-1.3588,-1.3587,-1.3681,-1.3684,-1.3688,0,0,0,0,0,0,0,0,0,0,0,0,0,-1.333,-1.3333,-1.3488,-1.3489,-1.349,-1.3577,-1.3579,-1.358,-1.359,-1.3589,-1.3588,-1.3587,-1.368,-1.3684,-1.3688,0,0,0,0,0,0,0,0,0,0,0,0,0,-1.3407,-1.3334,-1.3488,-1.3506,-1.3508,-1.3577,-1.3579,-1.358,-1.359,-1.3589,-1.3587,-1.3586,-1.3679,-1.3684,-1.3689,-1.3747,0,0,-1.3704,-1.3706,0,0,0,0,0,0,0,0,-1.3403,-1.3413,-1.3502,-1.3505,-1.3508,-1.3571,-1.3557,-1.3636,-1.359,-1.3559,-1.3587,-1.3585,-1.3646,-1.3653,-1.3673,-1.3751,-1.3755,-1.3704,-1.3707,-1.371,-1.3711,0,0,0,0,0,0,0,-1.3397,-1.3409,-1.3524,-1.3503,-1.3507,-1.3511,-1.352,-1.3572,-1.3609,-1.3562,-1.3563,-1.3573,-1.3647,-1.3668,-1.3675,-1.3756,-1.3704,-1.3709,-1.3712,-1.3714,-1.3889,-1.389,0,0,0,0,0,0,-1.3388,-1.3405,-1.3521,-1.3526,-1.3451,-1.3515,-1.3525,-1.3552,-1.3608,-1.3616,-1.3574,-1.3573,-1.366,-1.367,-1.3679,-1.3751,-1.3709,-1.3714,-1.3717,-1.3887,-1.3889,-1.3891,0,0,0,0,0,0,-1.3385,-1.3399,-1.3517,-1.3466,-1.3481,-1.3519,-1.3549,-1.3555,-1.3576,-1.3618,-1.3625,-1.3589,-1.366,-1.3672,-1.373,-1.3755,-1.3716,-1.3721,-1.3885,-1.3888,-1.389,-1.3896,0,0,0,0,0,0,-1.338,-1.3397,-1.3419,-1.3466,-1.3484,-1.3566,-1.355,-1.3557,-1.3584,-1.3584,-1.3633,-1.364,-1.366,-1.3722,-1.3735,-1.3761,-1.3725,-1.3883,-1.3886,-1.3889,-1.3894,-1.3899,-1.3903,0,0,0,0,0,-1.3375,-1.3417,-1.342,-1.3434,-1.3511,-1.3567,-1.3577,-1.3598,-1.3586,-1.3609,-1.3636,-1.3639,-1.375,-1.3728,-1.3742,-1.377,-1.3881,-1.3885,-1.3889,-1.3892,-1.3898,-1.3903,0,0,0,0,0,0,-1.3372,-1.3424,-1.3427,-1.3486,-1.3522,-1.3568,-1.3597,-1.3603,-1.3643,-1.3641,-1.3666,-1.3677,-1.3735,-1.3759,-1.3733,-1.3831,-1.3815,-1.3822,-1.3813,-1.3818,-1.3823,-1.3816,-1.3729,0,0,0,0,0,-1.3378,-1.3418,-1.3461,-1.3509,-1.3527,-1.3559,-1.3584,-1.3597,-1.3636,-1.3651,-1.3683,-1.3721,-1.3765,-1.3793,-1.3836,-1.3898,-1.391,-1.3925,-1.3929,-1.3932,-1.3938,-1.3974,-1.3981,-1.3903,-1.3903,-1.3903,0,0,-1.3392,-1.3425,-1.3448,-1.351,-1.3539,-1.3581,-1.3572,-1.3616,-1.3648,-1.3658,-1.3715,-1.374,-1.3784,-1.3845,-1.3873,-1.3867,-1.3962,-1.3937,-1.3939,-1.3943,-1.3979,-1.3986,-1.3993,-1.3905,-1.3905,-1.3904,0,0,-1.3437,-1.3466,-1.3509,-1.3539,-1.3584,-1.3605,-1.3616,-1.3662,-1.3679,-1.3736,-1.3745,-1.3784,-1.3858,-1.389,-1.3916,-1.3976,-1.3981,-1.3989,-1.4012,-1.4047,-1.4053,-1.4059,-1.4081,-1.4088,-1.3995,-1.3995,-1.3995,0,-1.3448,-1.3511,-1.3531,-1.3576,-1.3603,-1.3614,-1.3659,-1.3688,-1.3744,-1.3764,-1.3755,-1.385,-1.3881,-1.395,-1.3965,-1.3985,-1.3999,-1.3983,-1.405,-1.4056,-1.4062,-1.4083,-1.4091,-1.3995,-1.3995,-1.3995,-1.3995,0,-1.3523,-1.3566,-1.3596,-1.365,-1.3681,-1.3726,-1.3754,-1.3784,-1.3795,-1.3817,-1.3877,-1.3914,-1.3965,-1.3982,-1.3993,-1.4054,-1.4048,-1.4045,-1.4029,-1.407,-1.409,-1.4099,-1.3997,-1.3996,-1.3996,-1.3996,0,0,-1.3568,-1.3633,-1.3644,-1.3669,-1.372,-1.3755,-1.3801,-1.385,-1.3875,-1.3915,-1.3955,-1.4019,-1.4016,-1.4046,-1.4061,-1.4091,-1.4138,-1.4085,-1.4086,-1.4093,-1.4208,-1.421,-1.4219,-1.4142,-1.4143,-1.4145,-1.4205,0,-1.3619,-1.37,-1.3721,-1.3791,-1.3832,-1.3844,-1.3885,-1.3921,-1.3944,-1.3984,-1.401,-1.4054,-1.4047,-1.4066,-1.4097,-1.4125,-1.4161,-1.4122,-1.418,-1.4182,-1.4168,-1.423,-1.4232,-1.4287,-1.4213,-1.4214,-1.4215,0,-1.369,-1.373,-1.3804,-1.385,-1.3869,-1.3904,-1.3952,-1.3989,-1.4032,-1.4047,-1.408,-1.4093,-1.4143,-1.4126,-1.4196,-1.4169,-1.4194,-1.4213,-1.4215,-1.4221,-1.4201,-1.4238,-1.4304,-1.4313,-1.4228,-1.4227,-1.4226,0,-1.3716,-1.3789,-1.3842,-1.3864,-1.3919,-1.3945,-1.3969,-1.401,-1.4039,-1.4082,-1.4101,-1.4149,-1.4175,-1.4213,-1.4239,-1.4223,-1.4308,-1.4292,-1.4322,-1.4322,-1.4339,-1.4337,-1.4411,-1.4355,-1.4355,-1.4355,-1.4355,0,-1.3771,-1.3816,-1.3855,-1.3888,-1.3939,-1.3964,-1.4014,-1.4039,-1.4076,-1.4115,-1.413,-1.4166,-1.4198,-1.424,-1.4261,-1.4317,-1.4329,-1.4343,-1.4348,-1.4342,-1.434,-1.4358,-1.4355,-1.4357,-1.4357,-1.4356,-1.4356,0,-1.3808,-1.3836,-1.3896,-1.3944,-1.3957,-1.3993,-1.4035,-1.4069,-1.4093,-1.4142,-1.4156,-1.4194,-1.4244,-1.4274,-1.4337,-1.4351,-1.4413,-1.4417,-1.4398,-1.4401,-1.443,-1.4427,-1.4517,-1.4531,-1.4466,-1.4467,-1.4467,0,-1.3841,-1.3876,-1.3928,-1.3955,-1.398,-1.4023,-1.4053,-1.408,-1.411,-1.4162,-1.419,-1.4241,-1.4282,-1.4362,-1.4397,-1.4446,-1.4451,-1.4479,-1.4458,-1.4451,-1.4452,-1.4449,-1.4453,-1.4483,-1.4483,-1.4484,-1.4484,0,-1.3898,-1.391,-1.3951,-1.3999,-1.4033,-1.4072,-1.411,-1.4132,-1.4165,-1.4199,-1.425,-1.4283,-1.4348,-1.4399,-1.4451,-1.4479,-1.4488,-1.4491,-1.45,-1.4494,-1.4482,-1.449,-1.4408,-1.4488,-1.4488,-1.4487,-1.4487,-1.4487,-1.3934,-1.3966,-1.4008,-1.4054,-1.4086,-1.4122,-1.4156,-1.4185,-1.4227,-1.4282,-1.4295,-1.4349,-1.4393,-1.4464,-1.4493,-1.4537,-1.4532,-1.4546,-1.455,-1.4553,-1.4554,-1.4475,-1.4546,-1.4546,-1.4546,-1.4546,-1.4546,0,-1.3991,-1.4019,-1.4062,-1.4115,-1.4152,-1.4157,-1.42,-1.4231,-1.4278,-1.4317,-1.4359,-1.4418,-1.4468,-1.4507,-1.4559,-1.4587,-1.4592,-1.4599,-1.4597,-1.4604,-1.4554,-1.4541,-1.4594,-1.4594,-1.4594,-1.4594,-1.4594,-1.4594,-1.4025,-1.408,-1.4098,-1.4169,-1.4197,-1.4249,-1.4273,-1.4307,-1.4339,-1.4405,-1.4446,-1.4471,-1.4511,-1.4566,-1.4613,-1.4623,-1.4642,-1.4648,-1.4659,-1.4612,-1.4607,-1.4602,-1.459,-1.4652,-1.4652,-1.4705,-1.4706,-1.4706]},{"header":{"parameterUnit":"m.s-1","parameterCategory":1,"la1":30.2991,"la2":30.254,"lo1":-89.0895,"lo2":-89.0444,"dy":0.0017,"dx":0.0017,"nx":28,"ny":28,"refTime":"2024-05-03T21:00:00:Z","depth":0,"parameterNumber":3,"parameterNumberName":"V-component_of_WINDS"},"data":[0,0,0,0,0,0,0,0,0,0,0,0,0,0,0,0,0,0,0,0,0,0,0,0,0,0,0,0,0,0,0,0,0,0,0,0,0,0,0,0,0,0,0,0,0,0,0,0,0,0,0,0,0,0,0,0,0,0,2.9115,2.9115,0,2.9187,2.9188,2.9189,2.9216,2.9216,2.9216,2.9216,2.9291,2.9294,2.9296,0,0,0,0,0,0,0,0,0,0,0,0,0,2.9003,2.9005,2.9115,2.9116,2.9116,2.9187,2.9188,2.9189,2.9216,2.9216,2.9216,2.9215,2.9291,2.9293,2.9296,0,0,0,0,0,0,0,0,0,0,0,0,0,2.9061,2.9006,2.9114,2.9139,2.9141,2.9187,2.9188,2.9189,2.9216,2.9216,2.9216,2.9215,2.929,2.9293,2.9296,2.9324,0,0,2.9307,2.9308,0,0,0,0,0,0,0,0,2.9058,2.9065,2.9134,2.9137,2.914,2.9192,2.9177,2.9234,2.9216,2.9188,2.9216,2.9215,2.9259,2.9265,2.9279,2.9327,2.933,2.9307,2.9309,2.931,2.9311,0,0,0,0,0,0,0,2.9054,2.9062,2.9143,2.9135,2.9139,2.9147,2.9155,2.9188,2.9224,2.919,2.9193,2.9201,2.926,2.9276,2.9281,2.9332,2.9307,2.931,2.9312,2.9313,2.9408,2.9408,0,0,0,0,0,0,2.9045,2.9059,2.9141,2.9146,2.9097,2.9149,2.9158,2.9176,2.9224,2.9231,2.9201,2.9202,2.927,2.9277,2.9284,2.932,2.931,2.9313,2.9315,2.9407,2.9408,2.9408,0,0,0,0,0,0,2.9043,2.9052,2.9138,2.9103,2.9114,2.9151,2.9171,2.9178,2.9193,2.9232,2.9239,2.9209,2.927,2.9279,2.9314,2.9323,2.9315,2.9318,2.9406,2.9407,2.9408,2.9391,0,0,0,0,0,0,2.904,2.9051,2.9061,2.9103,2.9116,2.9166,2.9172,2.9179,2.9198,2.92,2.9242,2.9249,2.9271,2.9309,2.9317,2.9327,2.9321,2.9406,2.9407,2.9408,2.9391,2.9391,2.9391,0,0,0,0,0,2.9036,2.9054,2.9062,2.9071,2.9129,2.9166,2.9174,2.9198,2.9199,2.921,2.9235,2.9247,2.932,2.9312,2.9322,2.9333,2.9405,2.9407,2.9408,2.9391,2.9391,2.9391,0,0,0,0,0,0,2.9013,2.906,2.9069,2.9101,2.9129,2.9171,2.9185,2.9198,2.9227,2.9228,2.9257,2.9267,2.9299,2.932,2.9309,2.9363,2.9364,2.9367,2.9348,2.9348,2.9348,2.9343,2.9323,0,0,0,0,0,2.9011,2.9037,2.9077,2.9101,2.9115,2.9148,2.9165,2.9181,2.9212,2.9225,2.9253,2.9283,2.9313,2.9332,2.9361,2.9394,2.9404,2.9407,2.9407,2.9407,2.9409,2.9429,2.9431,2.9412,2.9412,2.9412,0,0,2.9009,2.9038,2.9052,2.9097,2.9121,2.9148,2.9157,2.9185,2.9206,2.9229,2.9263,2.9285,2.9321,2.9355,2.9372,2.9373,2.9417,2.9409,2.9408,2.9411,2.9431,2.9433,2.9434,2.9413,2.9413,2.9412,0,0,2.9018,2.9042,2.9065,2.9089,2.9125,2.9147,2.9153,2.9193,2.9208,2.9243,2.9262,2.9287,2.9338,2.9363,2.9382,2.9403,2.9415,2.9412,2.9412,2.9431,2.9433,2.9434,2.9442,2.9444,2.9414,2.9414,2.9414,0,2.901,2.905,2.9076,2.9103,2.9123,2.9145,2.917,2.9192,2.9237,2.925,2.9252,2.9317,2.9342,2.9383,2.9388,2.9403,2.9411,2.9407,2.943,2.9432,2.9434,2.9442,2.9445,2.9413,2.9413,2.9413,2.9413,0,2.9039,2.9067,2.9082,2.9124,2.9146,2.9171,2.9202,2.9221,2.9236,2.9258,2.9295,2.9326,2.9363,2.9375,2.939,2.9418,2.9418,2.9424,2.9426,2.9435,2.9443,2.9446,2.9412,2.9412,2.9413,2.9413,0,0,2.9034,2.9091,2.9096,2.9116,2.9158,2.9181,2.9208,2.9244,2.9261,2.9291,2.9315,2.9359,2.9365,2.9387,2.9406,2.9423,2.9437,2.9427,2.9429,2.9428,2.9472,2.9466,2.9469,2.9446,2.9447,2.9448,2.9469,0,2.9049,2.9098,2.9123,2.9162,2.9188,2.9211,2.9235,2.9264,2.9286,2.9313,2.9337,2.9367,2.9374,2.9387,2.9405,2.9432,2.9447,2.9431,2.947,2.9471,2.946,2.9473,2.9467,2.9485,2.9472,2.9472,2.9473,0,2.9072,2.9102,2.9143,2.9184,2.9196,2.9217,2.9253,2.9278,2.9312,2.9327,2.9352,2.937,2.9401,2.9401,2.9445,2.9434,2.9452,2.9467,2.9469,2.9473,2.9472,2.9478,2.9492,2.9494,2.9478,2.9477,2.9477,0,2.9065,2.9116,2.9147,2.9164,2.9212,2.9226,2.9247,2.9281,2.9301,2.9333,2.9347,2.9382,2.9401,2.9428,2.9455,2.9453,2.9497,2.9499,2.951,2.951,2.9518,2.9517,2.9535,2.953,2.953,2.953,2.953,0,2.9079,2.9103,2.9145,2.9164,2.9193,2.9222,2.925,2.9272,2.9303,2.9328,2.935,2.9373,2.9408,2.9436,2.9458,2.9492,2.95,2.9513,2.9519,2.9511,2.951,2.9523,2.9522,2.9531,2.953,2.953,2.953,0,2.9075,2.9104,2.914,2.9183,2.9194,2.9213,2.925,2.9271,2.9294,2.9326,2.9335,2.9372,2.9406,2.9436,2.9482,2.9497,2.9531,2.9538,2.9519,2.9522,2.9532,2.953,2.9559,2.9564,2.9555,2.9555,2.9555,0,2.9082,2.9101,2.9146,2.9164,2.9184,2.9213,2.9234,2.9264,2.9286,2.9327,2.9342,2.9378,2.9408,2.9462,2.9494,2.9529,2.9537,2.9544,2.9542,2.9534,2.9537,2.9535,2.9538,2.9544,2.9544,2.9544,2.9544,0,2.9091,2.9104,2.9133,2.9168,2.9192,2.9221,2.925,2.9264,2.93,2.9323,2.9358,2.9381,2.9428,2.9463,2.9502,2.9525,2.9541,2.9544,2.9549,2.9541,2.9529,2.9536,2.9518,2.9543,2.9543,2.9544,2.9544,2.9544,2.9093,2.9111,2.9146,2.9178,2.9203,2.9231,2.9252,2.9278,2.9308,2.9348,2.9364,2.94,2.9435,2.9489,2.9512,2.9541,2.9544,2.955,2.9552,2.9553,2.9552,2.9525,2.9548,2.9548,2.9548,2.9548,2.9548,0,2.9103,2.9127,2.9156,2.9196,2.9222,2.9234,2.9268,2.9289,2.932,2.9351,2.9381,2.9421,2.9456,2.9491,2.9528,2.9545,2.9553,2.9553,2.9552,2.9558,2.9547,2.9539,2.9546,2.9546,2.9546,2.9546,2.9546,2.9546,2.9111,2.9144,2.9162,2.9207,2.9231,2.9266,2.9284,2.931,2.9335,2.938,2.9409,2.9431,2.9464,2.9504,2.9537,2.9546,2.9559,2.9558,2.9569,2.9558,2.9558,2.9558,2.9551,2.956,2.956,2.9577,2.9577,2.9577]}]]